Hlavní strana
METAR-TAF:

METAR-TAF

Letiště :

Naval Auxiliary Landing Field Fentress

Chesapeake, Virginie, Spojené státy americké

zeměpisná šířka: 36-42-03N, zeměpisná délka: 076-07-42W, výška: 3 m

Aktuální stav počasí

Zpráva byla vytvořena před 38 minutami, v 00:56 UTC
Jižní vítr 8 kt
Teplota 22°C
Vlhkost vzduchu 100%
Tlak 1015 hPa
Viditelnost: 16.1 km
Skoro jasno ve výšce 12000 ft

METAR: KNFE 300056Z AUTO 17008KT 10SM FEW120 22/22 A2997 RMK AO2 SLP151 T02220217

Čas: 21:34 (01:34 UTC)


TAF: chybějící

Stav a předpovědi počasí z více než 4 000 letišť (zprávy METAR a TAF).

Červené a žluté tečky na mapě představují dostupné meteorologické stanice.

Když kurzor umístíte na tečku, zobrazí se název stanice.

Pak kliknutím zobrazíte stav a předpověď počasí.

Chcete-li změnit mapu, kliknutím na zelené tlačítko se znaménkem +mapu přiblížíte, kliknutím na zelené tlačítko se znaménkem – mapu oddálíte a kliknutím na zelené šipky přejdete na sousední mapy.


METAR-TAF: